Weather Roundup
Issued by NWS

Home | Current Version | Previous Version | Text Only | Print | Product List | Glossary On
Versions: 1 2 3 4 5 6 7 8 9 10 11 12 13 14 15 16 17 18 19 20 21 22 23 24 25 26 27 28 29 30 31 32 33 34 35 36 37 38 39 40 41 42 43 44 45 46 47 48 49 50
905
NZUS93 KARX 232310
HRRWXR

CURRENT HOURLY OBSERVATIONS ACROSS
MUCH OF THE UPPER MISSISSIPPI VALLEY
NATIONAL WEATHER SERVICE LA CROSSE WI
500 PM CST MON JAN 23 2017


...SOUTHEAST MINNESOTA...


CITY           SKY/WX    TMP DP  RH WIND       PRES   REMARKS
ROCHESTER      CLOUDY    31  29  92 W8        29.82R WCI  23
ROCHESTER/MAYO CLOUDY    33  31  90 W7        29.82S WCI  27
WINONA         CLOUDY    36  32  87 NW6       29.84R WCI  31
AUSTIN         CLOUDY    32  27  80 NW6       29.82S WCI  26
ALBERT LEA     CLOUDY    32  28  86 NW6       29.82F WCI  26
DODGE CENTER   CLOUDY    30  28  93 MISG      29.82R
PRESTON        CLOUDY    32  28  87 NW5       29.82R WCI  27
OWATONNA       CLOUDY    32  28  86 W3        29.83R
FARIBAULT      NOT AVBL
$$

...ELSEWHERE IN MINNESOTA...


CITY           SKY/WX    TMP DP  RH WIND       PRES   REMARKS
MINNEAPOLIS    CLOUDY    34  28  79 W5        29.83R WCI  30
INTNL FALLS    CLOUDY    32  27  81 CALM      29.77R
DULUTH         CLOUDY    34  33  96 NW7       29.77R WCI  28
RED WING       CLOUDY    34  28  80 CALM      29.83R
REDWOOD FALLS  CLOUDY    33  27  78 W3        29.84R
MANKATO        CLOUDY    32  28  85 NW6       29.84R WCI  26
WORTHINGTON    CLOUDY    30  28  92 VRB3      29.82R
FAIRMONT       CLOUDY    32  30  92 CALM      29.84S
$$

...SOUTHWEST WISCONSIN...


CITY           SKY/WX    TMP DP  RH WIND       PRES   REMARKS
LA CROSSE      CLOUDY    37  33  85 NW5       29.82R WCI  33
PRAIRIE DU CHI CLOUDY    37  32  82 W5        29.83R WCI  33
BOSCOBEL       CLOUDY    38  31  76 NW5       29.82S WCI  34
LONE ROCK      CLOUDY    38  32  79 NW6       29.81R WCI  33
PLATTEVILLE    CLOUDY    37  35  94 NW7       29.81R WCI  31
FORT MC COY    CLOUDY    34  33  98 W3        29.82S FOG
CAMP DOUGLAS   CLOUDY    36  36 100 NW5       29.80R WCI  32
MAUSTON-NEW LI CLOUDY    36  34  93 NW5       29.80R FOG     WCI  32
VIROQUA        CLOUDY    34  34 100 NW5       29.79S WCI  30
WIS DELLS      CLOUDY    36  34  92 W5        29.79R WCI  32
$$

...ELSEWHERE IN WISCONSIN...


CITY           SKY/WX    TMP DP  RH WIND       PRES   REMARKS
MILWAUKEE      CLOUDY    42  35  76 NW10      29.76S
MADISON        CLOUDY    37  35  92 NW6       29.79S WCI  32
GREEN BAY      CLOUDY    39  36  89 CALM      29.78R
EAU CLAIRE     CLOUDY    35  33  92 CALM      29.81R
BLACK RVR FLS  CLOUDY    36  36 100 W3        29.81R
MEDFORD        FOG       33  33  99 NW5       29.77S VSB 3/4 WCI  29
WAUSAU         CLOUDY    35  33  92 W8        29.76R WCI  29
WIS RAPIDS     CLOUDY    36  35  96 N3        29.79S
MARSHFIELD     CLOUDY    34  33  96 NW8       29.77S FOG     WCI  27
RICE LAKE      CLOUDY    34  33  96 CALM      29.82R
$$

...NORTHEAST IOWA...


CITY           SKY/WX    TMP DP  RH WIND       PRES   REMARKS
WATERLOO       CLOUDY    33  28  81 NW3       29.83R
DUBUQUE        CLOUDY    36  33  89 W6        29.81R WCI  31
DECORAH        CLOUDY    34  30  86 NW3       29.81R
MASON CITY     CLOUDY    32  28  85 N9        29.84S WCI  24
CHARLES CITY   CLOUDY    34  32  93 NW6       29.83R WCI  29
OELWEIN        CLOUDY    32  32 100 NW3       29.83R
$$

...ELSEWHERE IN IOWA...


CITY           SKY/WX    TMP DP  RH WIND       PRES   REMARKS
DES MOINES     CLOUDY    34  28  79 W3        29.86R
IOWA CITY      CLOUDY    36  29  75 NW10      29.85R WCI  28
FORT DODGE     CLOUDY    32  27  80 CALM      29.84S
MARSHALLTOWN   CLOUDY    33  30  88 W5        29.83R WCI  29
CEDAR RAPIDS   CLOUDY    33  30  88 W7        29.82R WCI  27
$$

...NORTHERN ILLINOIS...


CITY           SKY/WX    TMP DP  RH WIND       PRES   REMARKS
CHICAGO-OHARE  CLOUDY    41  35  79 NW9       29.76R
CHICAGO-MIDWAY CLOUDY    42  34  73 NW8       29.76R
MOLINE         CLOUDY    39  33  79 NW10      29.82R WCI  32
ROCKFORD       CLOUDY    41  35  79 NW7       29.80S
PEORIA         CLOUDY    41  35  79 NW5       29.81R
$$

NOTE: "FAIR" INDICATES FEW OR NO CLOUDS BELOW 12,000 FEET WITH NO
SIGNIFICANT WEATHER AND/OR OBSTRUCTIONS TO VISIBILITY. WIND
SPEEDS ARE IN MILES-PER-HOUR.




USA.gov is the U.S. government's official web portal to all federal, state and local government web resources and services.